[[{"header":{"parameterUnit":"m.s-1","parameterCategory":1,"la1":30.2991,"la2":30.254,"lo1":-89.0895,"lo2":-89.0444,"dy":0.0017,"dx":0.0017,"nx":28,"ny":28,"refTime":"2023-09-24T21:00:00:Z","depth":0,"parameterNumber":2,"parameterNumberName":"U-component_of_WINDS"},"data":[0,0,0,0,0,0,0,0,0,0,0,0,0,0,0,0,0,0,0,0,0,0,0,0,0,0,0,0,0,0,0,0,0,0,0,0,0,0,0,0,0,0,0,0,0,0,0,0,0,0,0,0,0,0,0,0,0,0,-1.9455,-1.9456,0,-1.9499,-1.95,-1.95,-1.9477,-1.9476,-1.9475,-1.9474,-1.9517,-1.9519,-1.9521,0,0,0,0,0,0,0,0,0,0,0,0,0,-1.9349,-1.9351,-1.9455,-1.9456,-1.9456,-1.9499,-1.95,-1.95,-1.9477,-1.9476,-1.9474,-1.9473,-1.9516,-1.9519,-1.9522,0,0,0,0,0,0,0,0,0,0,0,0,0,-1.9394,-1.9352,-1.9455,-1.945,-1.945,-1.9499,-1.95,-1.9501,-1.9478,-1.9476,-1.9474,-1.9472,-1.9515,-1.9519,-1.9522,-1.9578,0,0,-1.9532,-1.9534,0,0,0,0,0,0,0,0,-1.9392,-1.9398,-1.945,-1.945,-1.9451,-1.9481,-1.9478,-1.9527,-1.9478,-1.9467,-1.9474,-1.9472,-1.9506,-1.951,-1.9522,-1.958,-1.9582,-1.9532,-1.9535,-1.9536,-1.9537,0,0,0,0,0,0,0,-1.9389,-1.9396,-1.9473,-1.9451,-1.9451,-1.9445,-1.9449,-1.9487,-1.9496,-1.9468,-1.9466,-1.9472,-1.9506,-1.9519,-1.9523,-1.9583,-1.9532,-1.9535,-1.9537,-1.9539,-1.9687,-1.9688,0,0,0,0,0,0,-1.9386,-1.9394,-1.9471,-1.9474,-1.9416,-1.9448,-1.9453,-1.9473,-1.9495,-1.9497,-1.9473,-1.9471,-1.9514,-1.9519,-1.9525,-1.959,-1.9536,-1.9539,-1.9541,-1.9685,-1.9687,-1.9689,0,0,0,0,0,0,-1.9384,-1.9393,-1.9469,-1.9433,-1.9443,-1.9452,-1.9474,-1.9475,-1.9488,-1.95,-1.9501,-1.9485,-1.9513,-1.952,-1.9565,-1.9591,-1.9541,-1.9544,-1.9682,-1.9685,-1.9688,-1.9723,0,0,0,0,0,0,-1.9381,-1.9392,-1.9414,-1.9434,-1.9445,-1.951,-1.9476,-1.9477,-1.9494,-1.9491,-1.9511,-1.9513,-1.9512,-1.956,-1.9568,-1.9595,-1.9546,-1.968,-1.9684,-1.9687,-1.9719,-1.9726,-1.9732,0,0,0,0,0,-1.9377,-1.9422,-1.9416,-1.9425,-1.9472,-1.9511,-1.9517,-1.9516,-1.9496,-1.9518,-1.9525,-1.9512,-1.9588,-1.9565,-1.9574,-1.9602,-1.9678,-1.9683,-1.9687,-1.9716,-1.9725,-1.9732,0,0,0,0,0,0,-1.9405,-1.9425,-1.9418,-1.9471,-1.949,-1.9507,-1.9534,-1.9526,-1.955,-1.9546,-1.9543,-1.9547,-1.9593,-1.9603,-1.9577,-1.9657,-1.963,-1.9636,-1.9649,-1.9657,-1.9664,-1.966,-1.9549,0,0,0,0,0,-1.9418,-1.9448,-1.9464,-1.9509,-1.9519,-1.9525,-1.9542,-1.9539,-1.9558,-1.9566,-1.9577,-1.9595,-1.9623,-1.9641,-1.9667,-1.9721,-1.9724,-1.9745,-1.9752,-1.9757,-1.9762,-1.9789,-1.9798,-1.9703,-1.9703,-1.9703,0,0,-1.9444,-1.9458,-1.9478,-1.9515,-1.9529,-1.956,-1.9532,-1.9566,-1.9588,-1.9571,-1.9613,-1.9622,-1.9642,-1.9691,-1.9713,-1.97,-1.9789,-1.9763,-1.9767,-1.9769,-1.9794,-1.9803,-1.9811,-1.9706,-1.9705,-1.9705,0,0,-1.9506,-1.9521,-1.956,-1.9574,-1.9596,-1.96,-1.9609,-1.9628,-1.9633,-1.9676,-1.9664,-1.969,-1.9738,-1.9752,-1.9766,-1.9833,-1.9821,-1.9842,-1.9876,-1.9903,-1.991,-1.9917,-1.9938,-1.9947,-1.9847,-1.9847,-1.9847,0,-1.9535,-1.9581,-1.958,-1.9615,-1.9631,-1.9618,-1.9656,-1.967,-1.9699,-1.971,-1.9695,-1.9755,-1.9767,-1.9819,-1.9835,-1.9847,-1.9856,-1.9839,-1.9909,-1.9916,-1.9922,-1.9943,-1.9951,-1.985,-1.9849,-1.9849,-1.9849,0,-1.9615,-1.9647,-1.9675,-1.9704,-1.9723,-1.976,-1.9763,-1.9783,-1.9779,-1.9784,-1.9827,-1.9842,-1.987,-1.9883,-1.9879,-1.9933,-1.9924,-1.991,-1.9882,-1.9933,-1.9952,-1.9961,-1.9853,-1.9852,-1.9851,-1.9851,0,0,-1.9695,-1.9723,-1.9733,-1.9745,-1.9768,-1.9792,-1.9828,-1.9855,-1.9871,-1.9892,-1.992,-1.9961,-1.9948,-1.9963,-1.9961,-1.9985,-2.0035,-1.9967,-1.9967,-1.9977,-2.0093,-2.0102,-2.0111,-2.0028,-2.0029,-2.0031,-2.009,0,-1.9757,-1.9819,-1.9819,-1.9875,-1.9904,-1.9892,-1.9922,-1.9939,-1.9945,-1.9969,-1.9976,-2.0004,-1.9985,-1.9994,-2.0017,-2.0024,-2.0057,-2.002,-2.0052,-2.0053,-2.0045,-2.0122,-2.0132,-2.0187,-2.0098,-2.0099,-2.01,0,-1.9837,-1.9861,-1.992,-1.9938,-1.995,-1.9977,-2.0002,-2.0026,-2.0045,-2.0047,-2.0064,-2.0058,-2.0093,-2.0066,-2.0112,-2.0087,-2.01,-2.0106,-2.0108,-2.0109,-2.0078,-2.0123,-2.0205,-2.0212,-2.0113,-2.0112,-2.0111,0,-1.9887,-1.9933,-1.9974,-1.9985,-2.0008,-2.0027,-2.0037,-2.0054,-2.007,-2.0092,-2.0102,-2.0128,-2.0141,-2.0161,-2.0162,-2.0142,-2.0208,-2.0181,-2.0209,-2.0209,-2.0222,-2.0221,-2.0305,-2.0235,-2.0234,-2.0234,-2.0234,0,-1.9955,-1.9991,-1.9997,-2.0022,-2.0061,-2.0061,-2.01,-2.0109,-2.0124,-2.0149,-2.0141,-2.0165,-2.0166,-2.019,-2.0191,-2.0228,-2.0235,-2.0236,-2.0236,-2.0236,-2.0235,-2.0243,-2.0238,-2.0236,-2.0236,-2.0236,-2.0235,0,-2.0016,-2.0022,-2.0065,-2.0083,-2.0088,-2.0116,-2.0131,-2.0154,-2.0159,-2.0192,-2.0199,-2.0207,-2.0235,-2.0238,-2.0271,-2.0272,-2.0316,-2.0312,-2.0309,-2.0308,-2.0335,-2.0331,-2.0425,-2.0437,-2.0361,-2.0362,-2.0362,0,-2.0058,-2.0086,-2.0106,-2.0123,-2.0134,-2.0161,-2.0178,-2.0178,-2.0196,-2.0219,-2.0239,-2.0266,-2.0288,-2.0333,-2.0341,-2.0366,-2.0361,-2.0393,-2.0365,-2.0363,-2.0359,-2.0356,-2.0358,-2.0397,-2.0398,-2.0399,-2.0399,0,-2.0131,-2.0132,-2.0157,-2.0182,-2.0202,-2.0222,-2.0241,-2.0255,-2.0258,-2.0278,-2.0306,-2.0323,-2.0356,-2.0383,-2.0407,-2.0417,-2.0408,-2.0408,-2.0415,-2.0415,-2.0411,-2.0411,-2.0322,-2.0405,-2.0405,-2.0404,-2.0404,-2.0404,-2.0182,-2.0205,-2.0223,-2.025,-2.0265,-2.0282,-2.0304,-2.0312,-2.0336,-2.0363,-2.0363,-2.0394,-2.0411,-2.0442,-2.0453,-2.0477,-2.0466,-2.0478,-2.048,-2.0482,-2.0484,-2.0409,-2.0482,-2.0482,-2.0481,-2.0481,-2.0481,0,-2.0253,-2.0264,-2.0289,-2.0315,-2.0336,-2.0327,-2.0347,-2.0365,-2.0393,-2.0409,-2.0431,-2.0463,-2.0489,-2.0499,-2.0524,-2.0541,-2.0537,-2.0547,-2.0544,-2.0546,-2.0493,-2.0483,-2.0549,-2.0549,-2.0549,-2.0549,-2.0549,-2.0549,-2.0292,-2.033,-2.0333,-2.0378,-2.0388,-2.0419,-2.043,-2.0446,-2.0459,-2.0496,-2.0517,-2.0524,-2.0537,-2.0563,-2.0586,-2.0588,-2.0596,-2.0607,-2.0608,-2.0557,-2.055,-2.0544,-2.0534,-2.061,-2.061,-2.0659,-2.0659,-2.066]},{"header":{"parameterUnit":"m.s-1","parameterCategory":1,"la1":30.2991,"la2":30.254,"lo1":-89.0895,"lo2":-89.0444,"dy":0.0017,"dx":0.0017,"nx":28,"ny":28,"refTime":"2023-09-24T21:00:00:Z","depth":0,"parameterNumber":3,"parameterNumberName":"V-component_of_WINDS"},"data":[0,0,0,0,0,0,0,0,0,0,0,0,0,0,0,0,0,0,0,0,0,0,0,0,0,0,0,0,0,0,0,0,0,0,0,0,0,0,0,0,0,0,0,0,0,0,0,0,0,0,0,0,0,0,0,0,0,0,-0.7283,-0.7283,0,-0.7257,-0.7257,-0.7256,-0.7262,-0.7262,-0.7263,-0.7263,-0.7236,-0.7235,-0.7234,0,0,0,0,0,0,0,0,0,0,0,0,0,-0.7337,-0.7336,-0.7283,-0.7283,-0.7283,-0.7257,-0.7257,-0.7256,-0.7262,-0.7262,-0.7263,-0.7264,-0.7237,-0.7235,-0.7234,0,0,0,0,0,0,0,0,0,0,0,0,0,-0.7312,-0.7335,-0.7283,-0.7282,-0.7282,-0.7257,-0.7257,-0.7256,-0.7262,-0.7262,-0.7263,-0.7264,-0.7237,-0.7235,-0.7234,-0.7208,0,0,-0.7228,-0.7227,0,0,0,0,0,0,0,0,-0.7314,-0.731,-0.7283,-0.7282,-0.7282,-0.7264,-0.7266,-0.724,-0.7262,-0.7269,-0.7263,-0.7264,-0.7245,-0.7242,-0.7236,-0.7207,-0.7206,-0.7228,-0.7227,-0.7226,-0.7226,0,0,0,0,0,0,0,-0.7315,-0.7311,-0.7273,-0.7282,-0.7282,-0.7283,-0.728,-0.7261,-0.7253,-0.7269,-0.7269,-0.7266,-0.7245,-0.7237,-0.7235,-0.7205,-0.7228,-0.7226,-0.7225,-0.7225,-0.7152,-0.7151,0,0,0,0,0,0,-0.7318,-0.7313,-0.7274,-0.7272,-0.73,-0.7281,-0.7278,-0.7269,-0.7253,-0.7252,-0.7265,-0.7266,-0.724,-0.7237,-0.7234,-0.7201,-0.7226,-0.7224,-0.7223,-0.7153,-0.7152,-0.7151,0,0,0,0,0,0,-0.7319,-0.7314,-0.7275,-0.7292,-0.7288,-0.7279,-0.7269,-0.7268,-0.7261,-0.7251,-0.7249,-0.726,-0.7241,-0.7237,-0.7214,-0.7201,-0.7224,-0.7222,-0.7154,-0.7152,-0.7151,-0.7137,0,0,0,0,0,0,-0.732,-0.7314,-0.7305,-0.7292,-0.7287,-0.7255,-0.7268,-0.7267,-0.7258,-0.7259,-0.7245,-0.7243,-0.7241,-0.7217,-0.7212,-0.7199,-0.7221,-0.7155,-0.7153,-0.7152,-0.7139,-0.7135,-0.7133,0,0,0,0,0,-0.7322,-0.7302,-0.7304,-0.73,-0.7275,-0.7255,-0.7251,-0.7249,-0.7257,-0.7247,-0.724,-0.7244,-0.7203,-0.7214,-0.7209,-0.7195,-0.7156,-0.7154,-0.7152,-0.714,-0.7136,-0.7133,0,0,0,0,0,0,-0.7314,-0.7301,-0.7303,-0.7279,-0.7268,-0.7256,-0.7243,-0.7245,-0.7231,-0.7233,-0.723,-0.7227,-0.7204,-0.7197,-0.721,-0.7169,-0.718,-0.7177,-0.7173,-0.7169,-0.7166,-0.7168,-0.7219,0,0,0,0,0,-0.7309,-0.7294,-0.7284,-0.7263,-0.7258,-0.7251,-0.7242,-0.7241,-0.723,-0.7225,-0.7217,-0.7205,-0.719,-0.718,-0.7165,-0.7138,-0.7134,-0.7126,-0.7123,-0.7121,-0.7117,-0.7101,-0.7096,-0.7144,-0.7144,-0.7144,0,0,-0.7299,-0.7291,-0.7281,-0.7261,-0.7253,-0.7236,-0.7247,-0.723,-0.7218,-0.7223,-0.72,-0.7194,-0.718,-0.7155,-0.7144,-0.7149,-0.7103,-0.7118,-0.7116,-0.7114,-0.7098,-0.7094,-0.709,-0.7143,-0.7143,-0.7143,0,0,-0.7273,-0.7265,-0.7247,-0.7238,-0.7224,-0.722,-0.7215,-0.7203,-0.7198,-0.7176,-0.7179,-0.7164,-0.7138,-0.7127,-0.7119,-0.7087,-0.709,-0.7083,-0.7067,-0.705,-0.7047,-0.7043,-0.703,-0.7025,-0.708,-0.708,-0.708,0,-0.7262,-0.7238,-0.7237,-0.7219,-0.7209,-0.7213,-0.7193,-0.7184,-0.7167,-0.716,-0.7166,-0.7132,-0.7124,-0.7095,-0.7087,-0.7081,-0.7074,-0.7084,-0.7047,-0.7044,-0.7041,-0.7028,-0.7023,-0.7079,-0.7079,-0.7079,-0.708,0,-0.7225,-0.7208,-0.7194,-0.7177,-0.7166,-0.7147,-0.7142,-0.7131,-0.7131,-0.7126,-0.7102,-0.7092,-0.7074,-0.7068,-0.7068,-0.7038,-0.7042,-0.7048,-0.706,-0.7035,-0.7023,-0.7018,-0.7078,-0.7078,-0.7079,-0.7079,0,0,-0.7192,-0.7173,-0.7168,-0.7159,-0.7144,-0.7131,-0.7112,-0.7094,-0.7084,-0.7072,-0.7055,-0.7032,-0.7037,-0.7028,-0.7026,-0.7013,-0.6985,-0.702,-0.702,-0.7012,-0.695,-0.6944,-0.6938,-0.6988,-0.6987,-0.6986,-0.695,0,-0.7162,-0.7128,-0.7126,-0.7095,-0.7078,-0.7081,-0.7065,-0.7053,-0.7048,-0.7032,-0.7027,-0.7009,-0.7019,-0.7012,-0.6999,-0.6992,-0.6973,-0.6995,-0.697,-0.6969,-0.6971,-0.6932,-0.6926,-0.6893,-0.6946,-0.6945,-0.6945,0,-0.7123,-0.7109,-0.7076,-0.7062,-0.7055,-0.704,-0.7023,-0.7009,-0.6995,-0.6992,-0.6981,-0.6981,-0.6961,-0.6974,-0.6945,-0.696,-0.695,-0.6945,-0.6943,-0.6939,-0.6954,-0.6925,-0.6883,-0.6877,-0.6938,-0.6938,-0.6939,0,-0.7099,-0.7072,-0.7049,-0.7041,-0.7025,-0.7014,-0.7007,-0.6994,-0.6983,-0.6969,-0.6961,-0.6945,-0.6935,-0.6922,-0.6917,-0.6928,-0.6887,-0.6901,-0.6882,-0.6882,-0.6872,-0.6872,-0.6825,-0.6869,-0.6869,-0.687,-0.687,0,-0.7065,-0.7044,-0.7037,-0.7023,-0.6999,-0.6997,-0.6973,-0.6967,-0.6955,-0.6939,-0.6941,-0.6925,-0.6921,-0.6904,-0.6901,-0.6876,-0.6872,-0.6868,-0.6867,-0.6866,-0.6867,-0.6858,-0.686,-0.6868,-0.6869,-0.6869,-0.6869,0,-0.7034,-0.7029,-0.7003,-0.6989,-0.6985,-0.6968,-0.6957,-0.6942,-0.6937,-0.6915,-0.691,-0.6902,-0.6882,-0.6877,-0.6853,-0.6851,-0.6821,-0.6823,-0.6825,-0.6824,-0.6805,-0.6806,-0.6749,-0.674,-0.6793,-0.6792,-0.6792,0,-0.7012,-0.6996,-0.698,-0.6969,-0.6961,-0.6943,-0.6932,-0.6929,-0.6917,-0.69,-0.6887,-0.6867,-0.6851,-0.6819,-0.6811,-0.6792,-0.6793,-0.6774,-0.679,-0.6789,-0.679,-0.679,-0.6787,-0.677,-0.677,-0.6769,-0.6769,0,-0.6971,-0.6969,-0.6953,-0.6935,-0.6922,-0.6908,-0.6894,-0.6885,-0.688,-0.6866,-0.6846,-0.6833,-0.6809,-0.6788,-0.677,-0.6762,-0.6763,-0.6764,-0.6759,-0.6757,-0.6757,-0.6754,-0.6814,-0.6765,-0.6766,-0.6766,-0.6766,-0.6766,-0.6942,-0.6927,-0.6914,-0.6895,-0.6885,-0.6872,-0.6856,-0.6849,-0.6832,-0.6812,-0.6811,-0.6788,-0.6774,-0.6749,-0.674,-0.6721,-0.6727,-0.6719,-0.6717,-0.6714,-0.6711,-0.6762,-0.6718,-0.6718,-0.6718,-0.6719,-0.6719,0,-0.69,-0.6892,-0.6875,-0.6855,-0.684,-0.6844,-0.6829,-0.6816,-0.6796,-0.6783,-0.6767,-0.6742,-0.6722,-0.6712,-0.6692,-0.6679,-0.6679,-0.6674,-0.6674,-0.6671,-0.6709,-0.6715,-0.6674,-0.6674,-0.6674,-0.6674,-0.6674,-0.6674,-0.6876,-0.6851,-0.6847,-0.6816,-0.6807,-0.6784,-0.6775,-0.6763,-0.6752,-0.6724,-0.6708,-0.6702,-0.6689,-0.6668,-0.6649,-0.6647,-0.6638,-0.6632,-0.6629,-0.6664,-0.6669,-0.6673,-0.6678,-0.6631,-0.663,-0.6593,-0.6592,-0.6592]}]]